Regional Weather Roundup
Issued by NWS

Home | Current Version | Previous Version | Text Only | Print | Product List | Glossary Off
Versions: 1 2 3 4 5 6 7 8 9 10 11 12 13 14 15 16 17 18 19 20 21 22 23 24 25 26 27 28 29 30 31 32 33 34 35 36 37 38 39 40 41 42 43 44 45 46 47 48 49 50

000
ASUS43 KDTX 250101
RWRMI
MICHIGAN HOURLY REGIONAL WEATHER ROUNDUP
NATIONAL WEATHER SERVICE DETROIT/PONTIAC MI
900 PM EDT SAT SEP 24 2016

NOTE: "FAIR" INDICATES FEW OR NO CLOUDS BELOW 12,000 FEET WITH NO
SIGNIFICANT WEATHER AND/OR OBSTRUCTION TO VISIBILITY.

MIZ047>049-052>055-059>063-066>070-074>076-081>083-250200-
SOUTHEAST LOWER MICHIGAN

CITY           SKY/WX    TMP DP  RH WIND       PRES   REMARKS
ADRIAN         CLEAR     61  54  77 SE5       30.20S
ALMA           CLEAR     56  52  85 NE6       30.22S
ANN ARBOR      CLEAR     56  50  80 E5        30.19F
BAD AXE        CLEAR     48  45  87 CALM      30.26S
CARO           CLEAR     53  46  75 E5        30.23F
DETROIT CITY   CLEAR     60  46  59 NE7       30.22R
DETROIT        CLEAR     63  48  58 E3        30.21S
FLINT          CLEAR     58  47  66 E12       30.22S
GROSSE ILE     CLEAR     62  52  69 E5        30.20S
HILLSDALE      MOCLDY    61  52  72 E6        30.18S HAZE
HOWELL         CLEAR     58  52  80 NE5       30.20S

CITY           SKY/WX    TMP DP  RH WIND       PRES   REMARKS
JACKSON        CLEAR     60  53  77 E6        30.19S
LAMBERTVILLE   CLEAR     60  56  87 CALM      30.20S
LANSING        CLEAR     58  50  75 NE6       30.20F
LAPEER         FAIR      54  46  75 CALM      30.23S
MASON          CLEAR     58  51  79 CALM      30.19F
MONROE         CLEAR     58  55  88 S5        30.19S
MT. CLEMENS    CLEAR     55  47  73 NE6       30.20S
PONTIAC        CLEAR     58  47  66 E9        30.21S
PORT HOPE        N/A     62  48  60 E12       30.23F
PORT HURON     CLEAR     48  46  93 CALM      30.23F
TRI CITIES     CLEAR     57  46  66 E9        30.24S
MIDLAND        FAIR      54  48  79 CALM      30.22S
TROY           CLEAR     62  44  52 NE7       30.24S
SAGINAW HB     CLEAR     55  45  67 E7        30.23S
$$
MIZ043>046-050>051-056>058-064>065-071>073-077>080-250200-
SOUTHWEST LOWER MICHIGAN

CITY           SKY/WX    TMP DP  RH WIND       PRES   REMARKS
BATTLE CREEK   CLEAR     64  55  72 NE6       30.18S
BENTON HARBOR  CLEAR     66  59  78 E7        30.15R
BIG RAPIDS     CLEAR     58  51  78 E3        30.21R
COLDWATER      PTCLDY    64  56  76 E5        30.17S
FREMONT        FAIR      59  48  66 CALM      30.19R
HOLLAND        CLEAR     63  54  72 E6        30.17S
GRAND RAPIDS   CLEAR     59  51  75 E7        30.19S
IONIA          FAIR      58  49  72 E7        30.19S
KALAMAZOO      CLEAR     64  56  75 E3        30.18R
LUDINGTON      PTCLDY    55  53  92 CALM      30.18R
MARSHALL       CLEAR     61  55  82 CALM      30.17S
MUSKEGON       CLEAR     61  54  77 E7        30.18S
SOUTH HAVEN    CLEAR     65  61  85 E3        30.16R
$$
MIZ016>042-250200-
NORTHERN LOWER MICHIGAN

CITY           SKY/WX    TMP DP  RH WIND       PRES   REMARKS
ALPENA         CLEAR     50  44  80 CALM      30.27R
BEAVER ISLAND  CLEAR     53  48  83 E6        30.22S
BELLAIRE       CLEAR     55  47  76 CALM      30.22R
CADILLAC       CLEAR     55  48  77 SE6       30.21R
CHARLEVOIX     CLEAR     60  46  60 E8        30.25R
FRANKFORT      CLEAR     55  50  82 CALM      30.19R
GAYLORD        CLEAR     56  44  64 VRB3      30.24R
GRAYLING       CLEAR     54  47  76 E6        30.24R
HARBOR SPRINGS CLEAR     55  45  70 E7        30.24R
HOUGHTON LAKE  CLEAR     54  47  77 E7        30.24R
MANISTEE       CLEAR     56  53  90 NE3       30.19R
OSCODA         CLEAR     56  44  65 CALM      30.24F
PELLSTON       CLEAR     49  43  80 CALM      30.25R
ROGERS CITY    CLEAR     54  44  68 SE5       30.27R
TRAVERSE CITY  CLEAR     58  50  75 CALM      30.19R
$$
MIZ007>008-015-250200-
EASTERN UPPER MICHIGAN

CITY           SKY/WX    TMP DP  RH WIND       PRES   REMARKS
KINROSS        CLEAR     52  44  74 SE5       30.25S
MACKINAC ISLAN CLEAR     57  44  61 SE7       30.24S
NEWBERRY       CLEAR     51  49  93 SE5       30.22S
S. S. MARIE    CLEAR     54  45  71 S6        30.25R
MUNISING         N/A     53  49  86 S5        30.20S
$$
MIZ004>006-011>014-085-250200-
CENTRAL UPPER MICHIGAN

CITY           SKY/WX    TMP DP  RH WIND       PRES   REMARKS
MANISTIQUE     CLEAR     51  48  89 E3        30.21S
ESCANABA       CLEAR     60  51  72 SE6       30.21R
MENOMINEE      CLEAR     59  51  75 SE3       30.20R
SAWYER-GWINN   CLEAR     54  46  76 S5        30.21R
$$
MIZ001>003-009>011-084-250200-
WESTERN UPPER MICHIGAN

CITY           SKY/WX    TMP DP  RH WIND       PRES   REMARKS
IRON MOUNTAIN  CLEAR     58  48  69 SE5       30.20R
HOUGHTON       CLEAR     59  53  80 E7        30.17R
COPPER HARBOR    N/A     62  53  72 S10G17    30.17R
IRONWOOD       MOCLDY    64  55  72 SE6       30.13F
$$

ABBREVIATIONS USED IN REMARKS
   TC - TEMPERATURE IN CELSIUS
  WCI - WIND CHILL INDEX
   HX - HEAT INDEX
  VSB - VISIBILITY





USA.gov is the U.S. government's official web portal to all federal, state and local government web resources and services.